STARLINK-5533 (56355 NORAD) Tracking and Keplerian Element Data

This shows tracking and keplerian element data for the satellite.

Feedback or suggestion? Click here.




ElementValue
Catalog56355
NameSTARLINK-5533
Epoch Orbit181
Epoch Day127.00001157
Epoch Year2023
RAAN126.4759
Inclination97.6641
Eccentricity0.0001446
Argument of Perigee95.0428
Mean Anonmoly238.7959
Mean Motion15.68299561
Decay Rate-0.00867972
L11 56355U 23058AQ 23127.00001157 -.00867972 00000+0 -86136-2 0 9997
L22 56355 97.6641 126.4759 0001446 95.0428 238.7959 15.68299561 1811



Live tracking and technical data element details for STARLINK-5533 (NORAD 56355). STARLINK-5533 can be tracked NOW for your location showing map with azimuth and elevation plus other details from your city location.







IsCatalogInMostPopularTable: catalog: 56355, numindb: 3
Update: records affected: 1



GetName: 56355 STARLINK-5533

Hit Count: updated at: Sun, 04 Jun 2023 23:30:31 GMT